Scottsbluff, NE

6:25 AM MST on November 14, 2019 (GMT -0700)
Heilig

Weather History for KBFF - September, 2019

Change the Weather History Date:

Friday, September 27, 2019

  Actual Average Record
Temperature  
Mean Temperature 55 °F -  
Max Temperature 66 °F 73 °F 92 °F (1952)
Min Temperature 44 °F 40 °F 18 °F (1908)
Degree Days  
Heating Degree Days 10    
Growing Degree Days 5 (Base 50)    
Moisture  
Dew Point 45 °F    
Average Humidity 73    
Maximum Humidity 94    
Minimum Humidity 33    
Precipitation  
Precipitation 0.00 in - - ()
Sea Level Pressure  
Sea Level Pressure 29.84 in    
Wind  
Wind Speed 5 mph (ENE)    
Max Wind Speed 16 mph    
Max Gust Speed 18 mph    
Visibility 10 miles    
Events Rain    
Averages and records for this station are not official NWS values.
T = Trace of Precipitation, MM = Missing Value Source: NWS Daily Summary

Daily Weather History Graph

Daily Weather History Graph

Search for Another Location

Airport or City:

Astronomy

Sep. 27, 2019 Rise Set
Actual Time 6:46 AM MDT 6:43 PM MDT
Civil Twilight 6:19 AM MDT 7:10 PM MDT
Nautical Twilight 5:46 AM MDT 7:43 PM MDT
Astronomical Twilight 5:13 AM MDT 8:16 PM MDT
Moon 5:08 AM MDT (9/27) 6:37 PM MDT (9/27)
Length of Visible Light 12h 51m
Length of Day
11h 56m
Waning Crescent, 2% of the Moon is Illuminated
Sep 27
Waning Crescent
Sep 28
New
Oct 5
First Quarter
Oct 13
Full
Oct 21
Last Quarter

Hourly Weather History & Observations

Time (MDT) Temp. Windchill Dew Point Humidity Pressure Visibility Wind Dir Wind Speed Gust Speed Precip Events Conditions
12:53 AM 57.0 °F - 42.1 °F 57% 29.65 in 10.0 mi NW 3.5 mph - N/A   Clear
1:53 AM 54.0 °F - 42.1 °F 64% 29.70 in 10.0 mi NNW 8.1 mph - N/A   Clear
4:53 AM 44.1 °F - 39.9 °F 85% 29.70 in 10.0 mi Calm Calm - N/A   Clear
5:53 AM 43.0 °F - 39.9 °F 89% 29.71 in 10.0 mi Calm Calm - N/A   Clear
6:53 AM 46.0 °F 44.8 °F 41.0 °F 83% 29.73 in 10.0 mi North 3.5 mph - N/A   Clear
7:53 AM 46.9 °F - 42.1 °F 83% 29.75 in 10.0 mi West 4.6 mph - N/A   Clear
8:53 AM 55.9 °F - 44.1 °F 64% 29.75 in 10.0 mi West 4.6 mph - N/A   Clear
9:53 AM 57.9 °F - 43.0 °F 58% 29.80 in 10.0 mi SSE 5.8 mph - N/A   Clear
10:53 AM 62.1 °F - 43.0 °F 50% 29.80 in 10.0 mi Calm Calm - N/A   Clear
11:53 AM 64.0 °F - 42.1 °F 45% 29.78 in 10.0 mi NNW 4.6 mph - N/A   Mostly Cloudy
12:53 PM 64.9 °F - 41.0 °F 42% 29.78 in 10.0 mi Calm Calm - N/A   Mostly Cloudy
1:53 PM 64.9 °F - 42.1 °F 43% 29.77 in 10.0 mi Variable 5.8 mph - N/A   Scattered Clouds
2:53 PM 64.9 °F - 43.0 °F 45% 29.77 in 10.0 mi ESE 9.2 mph - N/A   Overcast
3:53 PM 64.0 °F - 43.0 °F 46% 29.80 in 10.0 mi East 6.9 mph - N/A   Overcast
4:53 PM 62.1 °F - 45.0 °F 53% 29.84 in 10.0 mi NNE 13.8 mph 18.4 mph N/A   Overcast
5:53 PM 55.9 °F - 48.9 °F 77% 29.90 in 10.0 mi NNE 16.1 mph - 0.00 in Rain Light Rain
6:53 PM 52.0 °F - 50.0 °F 93% 29.95 in 10.0 mi NE 13.8 mph - 0.03 in Rain Light Rain
7:53 PM 52.0 °F - 48.9 °F 89% 29.92 in 10.0 mi East 9.2 mph - 0.02 in Rain Light Rain
8:53 PM 51.1 °F - 48.9 °F 92% 29.94 in 10.0 mi East 5.8 mph - 0.01 in   Overcast
9:53 PM 52.0 °F - 48.9 °F 89% 29.94 in 10.0 mi East 6.9 mph - N/A   Overcast
10:17 PM 52.0 °F - 50.0 °F 93% 30.02 in 10.0 mi ESE 6.9 mph - N/A   Overcast
10:38 PM 52.0 °F - 50.0 °F 93% 30.01 in 10.0 mi SE 4.6 mph - N/A   Overcast
10:53 PM 52.0 °F - 50.0 °F 93% 29.94 in 10.0 mi ESE 5.8 mph - N/A   Overcast
11:00 PM 52.0 °F - 50.0 °F 93% 30.01 in 10.0 mi ESE 5.8 mph - N/A   Overcast
11:21 PM 52.0 °F - 50.0 °F 93% 30.00 in 10.0 mi East 8.1 mph - N/A   Overcast
11:51 PM 51.8 °F - 50.0 °F 94% 30.00 in 10.0 mi ESE 8.1 mph - N/A   Overcast
11:53 PM 52.0 °F - 50.0 °F 93% 29.93 in 10.0 mi East 8.1 mph - N/A   Overcast